Location: *
(58.4167°N, 22.5000°E)
Time: 19:44:16
(UTC+00:00)

Cosmos 2297 Rocket - Pass Details

Date: 22 September 2019
Orbit: 841 x 842 km, 71.0° (Epoch: 19 October)

Event Time Altitude Azimuth Distance (km) Brightness Sun altitude
Rises 23:31:31 0° 305° (NW) 3,409 5.5 -29.9°
Reaches altitude 10° 23:34:25 10° 319° (NW) 2,473 4.9 -29.8°
Maximum altitude 23:39:04 25° 14° (NNE) 1,639 4.3 -29.5°
Drops below altitude 10° 23:43:43 10° 69° (ENE) 2,469 5.1 -29.3°
Sets 23:46:36 0° 83° (E) 3,403 5.8 -29.2°
